Time,TemperatureF,DewpointF,PressureIn,WindDirection,WindDirectionDegrees,WindSpeedMPH,WindSpeedGustMPH,Humidity,HourlyPrecipIn,Conditions,Clouds,dailyrainin,SoftwareType,DateUTC
2013-03-31 00:00:00,50.6,38.5,29.92,WNW,296,4.0,5.0,63,0.00,,,0.30,Wunderground v.1.15,2013-03-31 05:00:00,
2013-03-31 00:05:00,50.4,38.7,29.92,NW,307,5.0,8.0,64,0.00,,,0.30,Wunderground v.1.15,2013-03-31 05:05:00,
2013-03-31 00:15:00,50.2,38.9,29.92,NW,309,3.0,5.0,65,0.00,,,0.00,Wunderground v.1.15,2013-03-31 05:15:00,
2013-03-31 00:20:00,50.1,38.8,29.93,NW,309,3.0,3.0,65,0.00,,,0.00,Wunderground v.1.15,2013-03-31 05:20:00,
2013-03-31 00:25:00,50.0,38.7,29.92,NW,309,3.0,3.0,65,0.00,,,0.00,Wunderground v.1.15,2013-03-31 05:25:00,
2013-03-31 00:30:00,49.8,38.5,29.93,NW,309,3.0,3.0,65,0.00,,,0.00,Wunderground v.1.15,2013-03-31 05:30:00,
2013-03-31 00:40:00,49.4,38.5,29.93,WNW,283,2.0,2.0,66,0.00,,,0.00,Wunderground v.1.15,2013-03-31 05:40:00,
2013-03-31 00:50:00,49.1,39.4,29.93,West,275,4.0,4.0,69,0.00,,,0.00,Wunderground v.1.15,2013-03-31 05:50:00,
2013-03-31 00:55:00,48.9,39.2,29.94,West,275,3.0,4.0,69,0.00,,,0.00,Wunderground v.1.15,2013-03-31 05:55:00,
2013-03-31 01:05:00,48.7,39.4,29.93,WNW,288,4.0,6.0,70,0.00,,,0.00,Wunderground v.1.15,2013-03-31 06:05:00,
2013-03-31 01:15:00,48.4,39.4,29.94,WNW,289,4.0,4.0,71,0.00,,,0.00,Wunderground v.1.15,2013-03-31 06:15:00,
2013-03-31 01:20:00,48.4,39.8,29.94,WNW,295,4.0,4.0,72,0.00,,,0.00,Wunderground v.1.15,2013-03-31 06:20:00,
2013-03-31 01:30:00,48.2,39.9,29.93,NW,306,4.0,4.0,73,0.00,,,0.00,Wunderground v.1.15,2013-03-31 06:30:00,
2013-03-31 01:35:00,48.1,40.2,29.93,NW,304,3.0,4.0,74,0.00,,,0.00,Wunderground v.1.15,2013-03-31 06:35:00,
2013-03-31 01:45:00,47.9,40.4,29.94,NW,305,3.0,5.0,75,0.00,,,0.00,Wunderground v.1.15,2013-03-31 06:45:00,
2013-03-31 01:50:00,47.7,40.2,29.94,NW,309,4.0,4.0,75,0.00,,,0.00,Wunderground v.1.15,2013-03-31 06:50:00,
2013-03-31 02:00:00,47.6,40.4,29.94,NW,319,5.0,5.0,76,0.00,,,0.00,Wunderground v.1.15,2013-03-31 07:00:00,
2013-03-31 02:05:00,47.6,40.7,29.94,NW,307,5.0,6.0,77,0.00,,,0.00,Wunderground v.1.15,2013-03-31 07:05:00,
2013-03-31 02:15:00,47.6,40.7,29.94,NW,319,5.0,9.0,77,0.00,,,0.00,Wunderground v.1.15,2013-03-31 07:15:00,
2013-03-31 02:25:00,47.6,40.7,29.94,WNW,301,5.0,8.0,77,0.00,,,0.00,Wunderground v.1.15,2013-03-31 07:25:00,
2013-03-31 02:30:00,47.5,40.6,29.94,WNW,302,4.0,4.0,77,0.00,,,0.00,Wunderground v.1.15,2013-03-31 07:30:00,
2013-03-31 02:35:00,47.4,40.6,29.94,WNW,302,4.0,4.0,77,0.00,,,0.00,Wunderground v.1.15,2013-03-31 07:35:00,
2013-03-31 02:45:00,47.2,40.4,29.93,NW,304,5.0,7.0,77,0.00,,,0.00,Wunderground v.1.15,2013-03-31 07:45:00,
2013-03-31 02:55:00,46.9,40.1,29.93,WNW,288,4.0,6.0,77,0.00,,,0.00,Wunderground v.1.15,2013-03-31 07:55:00,
2013-03-31 03:00:00,46.8,40.0,29.93,WNW,296,4.0,5.0,77,0.00,,,0.00,Wunderground v.1.15,2013-03-31 08:00:00,
2013-03-31 03:05:00,46.7,39.9,29.93,WNW,296,4.0,5.0,77,0.00,,,0.00,Wunderground v.1.15,2013-03-31 08:05:00,
2013-03-31 03:15:00,46.3,39.5,29.93,WNW,298,3.0,3.0,77,0.00,,,0.00,Wunderground v.1.15,2013-03-31 08:15:00,
2013-03-31 03:25:00,45.9,39.4,29.92,NW,304,4.0,5.0,78,0.00,,,0.00,Wunderground v.1.15,2013-03-31 08:25:00,
2013-03-31 03:30:00,45.7,39.2,29.92,WNW,299,4.0,4.0,78,0.00,,,0.00,Wunderground v.1.15,2013-03-31 08:30:00,
2013-03-31 03:40:00,45.3,39.2,29.92,NW,305,4.0,4.0,79,0.00,,,0.00,Wunderground v.1.15,2013-03-31 08:40:00,
2013-03-31 03:45:00,45.1,39.0,29.92,WNW,303,4.0,4.0,79,0.00,,,0.00,Wunderground v.1.15,2013-03-31 08:45:00,
2013-03-31 03:55:00,44.9,39.1,29.92,WNW,303,4.0,5.0,80,0.00,,,0.00,Wunderground v.1.15,2013-03-31 08:55:00,
2013-03-31 04:00:00,44.7,38.9,29.92,WNW,301,5.0,5.0,80,0.00,,,0.00,Wunderground v.1.15,2013-03-31 09:00:00,
2013-03-31 04:05:00,44.5,38.7,29.92,WNW,302,4.0,5.0,80,0.00,,,0.00,Wunderground v.1.15,2013-03-31 09:05:00,
2013-03-31 04:15:00,44.2,38.7,29.92,NW,306,4.0,5.0,81,0.00,,,0.00,Wunderground v.1.15,2013-03-31 09:15:00,
2013-03-31 04:20:00,44.1,38.6,29.92,NW,311,4.0,4.0,81,0.00,,,0.00,Wunderground v.1.15,2013-03-31 09:20:00,
2013-03-31 04:30:00,43.9,38.8,29.92,NW,312,4.0,4.0,82,0.00,,,0.00,Wunderground v.1.15,2013-03-31 09:30:00,
2013-03-31 04:35:00,43.8,38.7,29.92,NW,315,4.0,5.0,82,0.00,,,0.00,Wunderground v.1.15,2013-03-31 09:35:00,
2013-03-31 04:45:00,43.8,38.7,29.92,NW,325,3.0,4.0,82,0.00,,,0.00,Wunderground v.1.15,2013-03-31 09:45:00,
2013-03-31 04:50:00,43.7,38.6,29.92,NW,315,4.0,4.0,82,0.00,,,0.00,Wunderground v.1.15,2013-03-31 09:50:00,
2013-03-31 05:00:00,43.6,38.8,29.92,NW,310,3.0,3.0,83,0.00,,,0.00,Wunderground v.1.15,2013-03-31 10:00:00,
2013-03-31 05:05:00,43.5,38.4,29.92,NW,311,3.0,3.0,82,0.00,,,0.00,Wunderground v.1.15,2013-03-31 10:05:00,
2013-03-31 05:15:00,43.3,38.5,29.92,NW,306,3.0,4.0,83,0.00,,,0.00,Wunderground v.1.15,2013-03-31 10:15:00,
2013-03-31 05:20:00,43.3,38.5,29.92,NW,310,3.0,5.0,83,0.00,,,0.00,Wunderground v.1.15,2013-03-31 10:20:00,
2013-03-31 05:30:00,43.1,38.3,29.92,WNW,302,3.0,4.0,83,0.00,,,0.00,Wunderground v.1.15,2013-03-31 10:30:00,
2013-03-31 05:35:00,43.1,38.3,29.92,WNW,298,3.0,4.0,83,0.00,,,0.00,Wunderground v.1.15,2013-03-31 10:35:00,
2013-03-31 05:45:00,42.9,38.1,29.92,WNW,298,4.0,4.0,83,0.00,,,0.00,Wunderground v.1.15,2013-03-31 10:45:00,
2013-03-31 05:50:00,42.9,38.4,29.92,WNW,298,4.0,4.0,84,0.00,,,0.00,Wunderground v.1.15,2013-03-31 10:50:00,
2013-03-31 06:00:00,42.7,38.2,29.92,NW,305,4.0,4.0,84,0.00,,,0.00,Wunderground v.1.15,2013-03-31 11:00:00,
2013-03-31 06:05:00,42.7,38.2,29.93,NNW,327,4.0,4.0,84,0.00,,,0.00,Wunderground v.1.15,2013-03-31 11:05:00,
2013-03-31 06:15:00,42.5,38.0,29.93,NW,306,3.0,3.0,84,0.00,,,0.00,Wunderground v.1.15,2013-03-31 11:15:00,
2013-03-31 06:20:00,42.4,37.9,29.93,NW,311,3.0,3.0,84,0.00,,,0.00,Wunderground v.1.15,2013-03-31 11:20:00,
2013-03-31 06:30:00,42.2,37.7,29.93,NNW,341,4.0,4.0,84,0.00,,,0.00,Wunderground v.1.15,2013-03-31 11:30:00,
2013-03-31 06:35:00,42.1,37.6,29.94,NW,314,4.0,4.0,84,0.00,,,0.00,Wunderground v.1.15,2013-03-31 11:35:00,
2013-03-31 06:40:00,41.9,37.4,29.93,NW,310,3.0,3.0,84,0.00,,,0.00,Wunderground v.1.15,2013-03-31 11:40:00,
2013-03-31 06:50:00,41.7,37.2,29.93,NNW,344,4.0,7.0,84,0.00,,,0.00,Wunderground v.1.15,2013-03-31 11:50:00,
2013-03-31 07:00:00,41.4,36.9,29.93,NNW,345,3.0,3.0,84,0.00,,,0.00,Wunderground v.1.15,2013-03-31 12:00:00,
2013-03-31 07:05:00,41.3,36.8,29.93,NNW,346,2.0,3.0,84,0.00,,,0.00,Wunderground v.1.15,2013-03-31 12:05:00,
2013-03-31 07:15:00,41.0,36.2,29.93,North,351,3.0,6.0,83,0.00,,,0.00,Wunderground v.1.15,2013-03-31 12:15:00,
2013-03-31 07:20:00,40.9,36.1,29.94,North,351,3.0,3.0,83,0.00,,,0.00,Wunderground v.1.15,2013-03-31 12:20:00,
2013-03-31 07:30:00,40.6,35.8,29.93,North,351,2.0,2.0,83,0.00,,,0.00,Wunderground v.1.15,2013-03-31 12:30:00,
2013-03-31 07:35:00,40.6,35.8,29.94,North,351,2.0,3.0,83,0.00,,,0.00,Wunderground v.1.15,2013-03-31 12:35:00,
2013-03-31 07:45:00,40.4,35.6,29.95,NW,304,4.0,9.0,83,0.00,,,0.00,Wunderground v.1.15,2013-03-31 12:45:00,
2013-03-31 07:50:00,40.4,35.6,29.95,NNW,337,5.0,5.0,83,0.00,,,0.00,Wunderground v.1.15,2013-03-31 12:50:00,
2013-03-31 08:00:00,40.5,36.0,29.96,WNW,296,5.0,5.0,84,0.00,,,0.00,Wunderground v.1.15,2013-03-31 13:00:00,
2013-03-31 08:05:00,40.6,36.1,29.96,WNW,302,5.0,5.0,84,0.00,,,0.00,Wunderground v.1.15,2013-03-31 13:05:00,
2013-03-31 08:15:00,40.8,36.0,29.96,NW,306,5.0,7.0,83,0.00,,,0.00,Wunderground v.1.15,2013-03-31 13:15:00,
2013-03-31 08:25:00,41.1,36.3,29.96,WNW,294,4.0,6.0,83,0.00,,,0.00,Wunderground v.1.15,2013-03-31 13:25:00,
2013-03-31 08:30:00,41.3,36.5,29.96,NW,312,5.0,6.0,83,0.00,,,0.00,Wunderground v.1.15,2013-03-31 13:30:00,
2013-03-31 08:40:00,41.7,36.6,29.96,WNW,302,5.0,7.0,82,0.00,,,0.00,Wunderground v.1.15,2013-03-31 13:40:00,
2013-03-31 08:45:00,41.9,36.8,29.97,WNW,301,5.0,7.0,82,0.00,,,0.00,Wunderground v.1.15,2013-03-31 13:45:00,
2013-03-31 08:55:00,42.3,36.9,29.96,NW,304,5.0,7.0,81,0.00,,,0.00,Wunderground v.1.15,2013-03-31 13:55:00,
2013-03-31 09:00:00,42.7,37.3,29.97,WNW,296,4.0,4.0,81,0.00,,,0.00,Wunderground v.1.15,2013-03-31 14:00:00,
2013-03-31 09:05:00,43.2,37.8,29.96,WNW,287,4.0,7.0,81,0.00,,,0.00,Wunderground v.1.15,2013-03-31 14:05:00,
2013-03-31 09:15:00,44.0,37.6,29.97,NW,316,6.0,7.0,78,0.00,,,0.00,Wunderground v.1.15,2013-03-31 14:15:00,
2013-03-31 09:25:00,45.0,37.6,29.97,NW,317,7.0,9.0,75,0.00,,,0.00,Wunderground v.1.15,2013-03-31 14:25:00,
2013-03-31 09:30:00,45.4,37.9,29.97,WNW,292,7.0,11.0,75,0.00,,,0.00,Wunderground v.1.15,2013-03-31 14:30:00,
2013-03-31 09:40:00,46.2,37.7,29.97,North,355,7.0,7.0,72,0.00,,,0.00,Wunderground v.1.15,2013-03-31 14:40:00,
2013-03-31 09:45:00,47.2,38.6,29.96,NW,307,5.0,7.0,72,0.00,,,0.00,Wunderground v.1.15,2013-03-31 14:45:00,
2013-03-31 09:55:00,48.4,38.3,29.97,WNW,296,6.0,6.0,68,0.00,,,0.00,Wunderground v.1.15,2013-03-31 14:55:00,
2013-03-31 10:00:00,48.7,38.6,29.97,NW,307,7.0,7.0,68,0.00,,,0.00,Wunderground v.1.15,2013-03-31 15:00:00,
2013-03-31 10:05:00,49.4,38.9,29.97,WNW,292,7.0,12.0,67,0.00,,,0.00,Wunderground v.1.15,2013-03-31 15:05:00,
2013-03-31 10:15:00,49.6,38.3,29.96,NNW,328,9.0,12.0,65,0.00,,,0.00,Wunderground v.1.15,2013-03-31 15:15:00,
2013-03-31 10:25:00,50.5,38.8,29.97,WNW,288,8.0,8.0,64,0.00,,,0.00,Wunderground v.1.15,2013-03-31 15:25:00,
2013-03-31 10:30:00,51.2,38.6,29.97,NW,319,9.0,9.0,62,0.00,,,0.00,Wunderground v.1.15,2013-03-31 15:30:00,
2013-03-31 10:40:00,51.2,38.2,29.97,NW,309,11.0,16.0,61,0.00,,,0.00,Wunderground v.1.15,2013-03-31 15:40:00,
2013-03-31 10:45:00,51.1,37.7,29.97,NW,309,12.0,16.0,60,0.00,,,0.00,Wunderground v.1.15,2013-03-31 15:45:00,
2013-03-31 10:55:00,51.8,37.9,29.97,NW,305,10.0,11.0,59,0.00,,,0.00,Wunderground v.1.15,2013-03-31 15:55:00,
2013-03-31 11:00:00,52.2,37.9,29.97,NW,309,10.0,10.0,58,0.00,,,0.00,Wunderground v.1.15,2013-03-31 16:00:00,
2013-03-31 11:05:00,52.7,38.3,29.97,NW,317,9.0,10.0,58,0.00,,,0.00,Wunderground v.1.15,2013-03-31 16:05:00,
2013-03-31 11:15:00,53.7,38.8,29.98,NW,308,9.0,12.0,57,0.00,,,0.00,Wunderground v.1.15,2013-03-31 16:15:00,
2013-03-31 11:25:00,53.3,36.1,29.97,WNW,290,13.0,13.0,52,0.00,,,0.00,Wunderground v.1.15,2013-03-31 16:25:00,
2013-03-31 11:35:00,53.9,35.2,29.97,NNW,327,13.0,19.0,49,0.00,,,0.00,Wunderground v.1.15,2013-03-31 16:35:00,
2013-03-31 11:45:00,54.2,34.9,29.97,NW,323,14.0,14.0,48,0.00,,,0.00,Wunderground v.1.15,2013-03-31 16:45:00,
2013-03-31 11:50:00,55.3,35.4,29.97,NW,307,12.0,12.0,47,0.00,,,0.00,Wunderground v.1.15,2013-03-31 16:50:00,
2013-03-31 11:55:00,55.1,34.1,29.97,NNW,333,12.0,13.0,45,0.00,,,0.00,Wunderground v.1.15,2013-03-31 16:55:00,
2013-03-31 12:05:00,55.7,35.2,29.98,WNW,301,10.0,13.0,46,0.00,,,0.00,Wunderground v.1.15,2013-03-31 17:05:00,
2013-03-31 12:15:00,55.9,33.7,29.98,NW,315,12.0,21.0,43,0.00,,,0.00,Wunderground v.1.15,2013-03-31 17:15:00,
2013-03-31 12:20:00,55.7,32.9,29.97,NW,323,13.0,15.0,42,0.00,,,0.00,Wunderground v.1.15,2013-03-31 17:20:00,
2013-03-31 12:25:00,55.0,32.3,29.97,WNW,301,15.0,21.0,42,0.00,,,0.00,Wunderground v.1.15,2013-03-31 17:25:00,
2013-03-31 12:35:00,55.9,33.7,29.97,NW,305,15.0,17.0,43,0.00,,,0.00,Wunderground v.1.15,2013-03-31 17:35:00,
2013-03-31 12:40:00,56.3,32.9,29.97,NW,306,13.0,13.0,41,0.00,,,0.00,Wunderground v.1.15,2013-03-31 17:40:00,
2013-03-31 12:50:00,55.9,30.6,29.98,NNW,344,14.0,16.0,38,0.00,,,0.00,Wunderground v.1.15,2013-03-31 17:50:00,
2013-03-31 13:00:00,56.3,32.3,29.98,WNW,288,11.0,11.0,40,0.00,,,0.00,Wunderground v.1.15,2013-03-31 18:00:00,
2013-03-31 13:05:00,56.9,31.5,29.97,NW,321,10.0,16.0,38,0.00,,,0.00,Wunderground v.1.15,2013-03-31 18:05:00,
2013-03-31 13:15:00,56.2,30.9,29.98,NW,307,15.0,17.0,38,0.00,,,0.00,Wunderground v.1.15,2013-03-31 18:15:00,
2013-03-31 13:20:00,56.2,30.9,29.97,NW,310,14.0,14.0,38,0.00,,,0.00,Wunderground v.1.15,2013-03-31 18:20:00,
2013-03-31 13:30:00,57.8,31.0,29.97,WNW,282,12.0,12.0,36,0.00,,,0.00,Wunderground v.1.15,2013-03-31 18:30:00,
2013-03-31 13:35:00,57.3,30.5,29.97,North,360,14.0,14.0,36,0.00,,,0.00,Wunderground v.1.15,2013-03-31 18:35:00,
2013-03-31 13:45:00,57.8,29.6,29.97,NNE,28,11.0,19.0,34,0.00,,,0.00,Wunderground v.1.15,2013-03-31 18:45:00,
2013-03-31 13:55:00,57.7,29.5,29.97,WNW,298,13.0,13.0,34,0.00,,,0.00,Wunderground v.1.15,2013-03-31 18:55:00,
2013-03-31 14:05:00,58.0,31.2,29.97,North,355,12.0,15.0,36,0.00,,,0.00,Wunderground v.1.15,2013-03-31 19:05:00,
2013-03-31 14:15:00,59.0,30.6,29.97,WNW,300,11.0,17.0,34,0.00,,,0.00,Wunderground v.1.15,2013-03-31 19:15:00,
2013-03-31 14:20:00,58.7,30.4,29.97,WNW,298,13.0,13.0,34,0.00,,,0.00,Wunderground v.1.15,2013-03-31 19:20:00,
2013-03-31 14:30:00,58.4,30.1,29.97,NW,304,13.0,17.0,34,0.00,,,0.00,Wunderground v.1.15,2013-03-31 19:30:00,
2013-03-31 14:40:00,58.8,29.7,29.96,WNW,292,12.0,12.0,33,0.00,,,0.00,Wunderground v.1.15,2013-03-31 19:40:00,
2013-03-31 14:50:00,58.8,29.7,29.96,NNW,342,11.0,16.0,33,0.00,,,0.00,Wunderground v.1.15,2013-03-31 19:50:00,
2013-03-31 14:55:00,58.6,29.6,29.96,NNE,28,12.0,16.0,33,0.00,,,0.00,Wunderground v.1.15,2013-03-31 19:55:00,
2013-03-31 15:05:00,59.0,29.2,29.96,WNW,294,10.0,23.0,32,0.00,,,0.00,Wunderground v.1.15,2013-03-31 20:05:00,
2013-03-31 15:15:00,58.4,28.6,29.95,WNW,293,13.0,13.0,32,0.00,,,0.00,Wunderground v.1.15,2013-03-31 20:15:00,
2013-03-31 15:20:00,58.6,28.8,29.95,NNW,347,11.0,11.0,32,0.00,,,0.00,Wunderground v.1.15,2013-03-31 20:20:00,
2013-03-31 15:30:00,58.6,28.0,29.95,NNW,346,11.0,11.0,31,0.00,,,0.00,Wunderground v.1.15,2013-03-31 20:30:00,
2013-03-31 15:40:00,58.0,28.3,29.95,NW,315,10.0,10.0,32,0.00,,,0.00,Wunderground v.1.15,2013-03-31 20:40:00,
2013-03-31 15:45:00,58.5,29.5,29.95,NW,314,9.0,10.0,33,0.00,,,0.00,Wunderground v.1.15,2013-03-31 20:45:00,
2013-03-31 15:55:00,59.4,29.5,29.94,NW,321,7.0,11.0,32,0.00,,,0.00,Wunderground v.1.15,2013-03-31 20:55:00,
2013-03-31 16:05:00,58.7,28.9,29.94,North,9,8.0,12.0,32,0.00,,,0.00,Wunderground v.1.15,2013-03-31 21:05:00,
2013-03-31 16:15:00,58.7,28.9,29.94,North,355,9.0,9.0,32,0.00,,,0.00,Wunderground v.1.15,2013-03-31 21:15:00,
2013-03-31 16:20:00,58.6,29.6,29.94,North,350,10.0,13.0,33,0.00,,,0.00,Wunderground v.1.15,2013-03-31 21:20:00,
2013-03-31 16:30:00,58.1,29.1,29.94,WNW,297,8.0,8.0,33,0.00,,,0.00,Wunderground v.1.15,2013-03-31 21:30:00,
2013-03-31 16:35:00,58.2,28.5,29.94,NW,315,8.0,12.0,32,0.00,,,0.00,Wunderground v.1.15,2013-03-31 21:35:00,
2013-03-31 16:45:00,58.3,29.3,29.94,NNW,331,8.0,9.0,33,0.00,,,0.00,Wunderground v.1.15,2013-03-31 21:45:00,
2013-03-31 16:50:00,57.8,28.1,29.94,WNW,302,9.0,9.0,32,0.00,,,0.00,Wunderground v.1.15,2013-03-31 21:50:00,
2013-03-31 17:00:00,58.2,29.2,29.94,WNW,302,7.0,8.0,33,0.00,,,0.00,Wunderground v.1.15,2013-03-31 22:00:00,
2013-03-31 17:05:00,58.4,27.9,29.94,NNW,329,8.0,15.0,31,0.00,,,0.00,Wunderground v.1.15,2013-03-31 22:05:00,
2013-03-31 17:15:00,58.5,29.5,29.94,NW,309,8.0,9.0,33,0.00,,,0.00,Wunderground v.1.15,2013-03-31 22:15:00,
2013-03-31 17:20:00,58.3,28.5,29.94,NW,308,8.0,8.0,32,0.00,,,0.00,Wunderground v.1.15,2013-03-31 22:20:00,
2013-03-31 17:25:00,58.0,28.3,29.94,WNW,300,8.0,8.0,32,0.00,,,0.00,Wunderground v.1.15,2013-03-31 22:25:00,
2013-03-31 17:35:00,56.8,27.2,29.94,NW,306,7.0,10.0,32,0.00,,,0.00,Wunderground v.1.15,2013-03-31 22:35:00,
2013-03-31 17:40:00,56.6,27.0,29.94,WNW,282,8.0,9.0,32,0.00,,,0.00,Wunderground v.1.15,2013-03-31 22:40:00,
2013-03-31 17:50:00,56.3,27.5,29.94,North,360,7.0,7.0,33,0.00,,,0.00,Wunderground v.1.15,2013-03-31 22:50:00,
2013-03-31 18:00:00,55.8,26.3,29.94,North,355,7.0,9.0,32,0.00,,,0.00,Wunderground v.1.15,2013-03-31 23:00:00,
2013-03-31 18:05:00,55.4,26.7,29.94,WNW,301,8.0,9.0,33,0.00,,,0.00,Wunderground v.1.15,2013-03-31 23:05:00,
2013-03-31 18:15:00,55.0,27.1,29.94,NW,311,5.0,6.0,34,0.00,,,0.00,Wunderground v.1.15,2013-03-31 23:15:00,
2013-03-31 18:25:00,54.2,27.1,29.94,NNE,18,5.0,9.0,35,0.00,,,0.00,Wunderground v.1.15,2013-03-31 23:25:00,
2013-03-31 18:35:00,53.4,27.1,29.94,North,5,7.0,11.0,36,0.00,,,0.00,Wunderground v.1.15,2013-03-31 23:35:00,
2013-03-31 18:40:00,53.3,27.0,29.94,NNE,22,5.0,5.0,36,0.00,,,0.00,Wunderground v.1.15,2013-03-31 23:40:00,
2013-03-31 18:50:00,53.0,27.4,29.95,North,349,5.0,5.0,37,0.00,,,0.00,Wunderground v.1.15,2013-03-31 23:50:00,
2013-03-31 19:00:00,52.4,26.9,29.95,North,9,7.0,7.0,37,0.00,,,0.00,Wunderground v.1.15,2013-04-01 00:00:00,
2013-03-31 19:05:00,52.1,27.2,29.95,North,360,8.0,8.0,38,0.00,,,0.00,Wunderground v.1.15,2013-04-01 00:05:00,
2013-03-31 19:15:00,51.4,27.2,29.95,NNE,26,7.0,11.0,39,0.00,,,0.00,Wunderground v.1.15,2013-04-01 00:15:00,
2013-03-31 19:20:00,51.2,27.7,29.96,NNE,21,8.0,11.0,40,0.00,,,0.00,Wunderground v.1.15,2013-04-01 00:20:00,
2013-03-31 19:25:00,50.8,27.3,29.96,NNE,22,7.0,11.0,40,0.00,,,0.00,Wunderground v.1.15,2013-04-01 00:25:00,
2013-03-31 19:35:00,49.9,27.1,29.97,North,351,11.0,11.0,41,0.00,,,0.00,Wunderground v.1.15,2013-04-01 00:35:00,
2013-03-31 19:40:00,49.6,26.8,29.97,NNE,29,10.0,10.0,41,0.00,,,0.00,Wunderground v.1.15,2013-04-01 00:40:00,
2013-03-31 19:50:00,49.1,27.0,29.97,North,350,9.0,9.0,42,0.00,,,0.00,Wunderground v.1.15,2013-04-01 00:50:00,
2013-03-31 19:55:00,48.9,26.8,29.98,NW,308,9.0,9.0,42,0.00,,,0.00,Wunderground v.1.15,2013-04-01 00:55:00,
2013-03-31 20:05:00,48.4,26.9,29.98,North,360,10.0,10.0,43,0.00,,,0.00,Wunderground v.1.15,2013-04-01 01:05:00,
2013-03-31 20:15:00,48.1,27.2,29.98,NNW,342,10.0,10.0,44,0.00,,,0.00,Wunderground v.1.15,2013-04-01 01:15:00,
2013-03-31 20:25:00,47.8,27.5,29.98,North,355,11.0,19.0,45,0.00,,,0.00,Wunderground v.1.15,2013-04-01 01:25:00,
2013-03-31 20:35:00,47.3,28.6,30.00,North,5,13.0,22.0,48,0.00,,,0.00,Wunderground v.1.15,2013-04-01 01:35:00,
2013-03-31 20:40:00,46.7,28.5,30.01,NNE,32,14.0,15.0,49,0.00,,,0.00,Wunderground v.1.15,2013-04-01 01:40:00,
2013-03-31 20:50:00,45.4,28.3,30.02,North,11,14.0,20.0,51,0.00,,,0.00,Wunderground v.1.15,2013-04-01 01:50:00,
2013-03-31 20:55:00,44.8,28.2,30.02,North,5,16.0,20.0,52,0.00,,,0.00,Wunderground v.1.15,2013-04-01 01:55:00,
2013-03-31 21:05:00,44.1,28.9,30.02,NNE,28,12.0,14.0,55,0.00,,,0.00,Wunderground v.1.15,2013-04-01 02:05:00,
2013-03-31 21:15:00,43.6,29.4,30.03,NNE,17,12.0,23.0,57,0.00,,,0.00,Wunderground v.1.15,2013-04-01 02:15:00,
2013-03-31 21:20:00,43.3,29.9,30.04,NNE,30,12.0,12.0,59,0.00,,,0.00,Wunderground v.1.15,2013-04-01 02:20:00,
2013-03-31 21:30:00,42.8,29.9,30.05,NNW,344,14.0,14.0,60,0.00,,,0.00,Wunderground v.1.15,2013-04-01 02:30:00,
2013-03-31 21:40:00,42.1,31.6,30.06,NNE,26,13.0,14.0,66,0.00,,,0.00,Wunderground v.1.15,2013-04-01 02:40:00,
2013-03-31 21:45:00,41.1,32.4,30.07,NE,37,14.0,20.0,71,0.00,,,0.01,Wunderground v.1.15,2013-04-01 02:45:00,
2013-03-31 21:55:00,39.5,32.6,30.08,NE,38,13.0,14.0,76,0.00,,,0.01,Wunderground v.1.15,2013-04-01 02:55:00,
2013-03-31 22:00:00,39.1,32.8,30.09,North,9,11.0,11.0,78,0.00,,,0.01,Wunderground v.1.15,2013-04-01 03:00:00,
2013-03-31 22:05:00,38.8,32.8,30.09,NNE,12,10.0,14.0,79,0.00,,,0.01,Wunderground v.1.15,2013-04-01 03:05:00,
2013-03-31 22:15:00,38.0,32.7,30.10,NNE,17,9.0,14.0,81,0.00,,,0.01,Wunderground v.1.15,2013-04-01 03:15:00,
2013-03-31 22:20:00,37.7,32.7,30.10,NNE,30,8.0,11.0,82,0.00,,,0.02,Wunderground v.1.15,2013-04-01 03:20:00,
2013-03-31 22:25:00,37.3,32.6,30.10,NNE,28,9.0,11.0,83,0.00,,,0.02,Wunderground v.1.15,2013-04-01 03:25:00,
2013-03-31 22:35:00,36.4,31.7,30.10,NNE,19,9.0,19.0,83,0.07,,,0.03,Wunderground v.1.15,2013-04-01 03:35:00,
2013-03-31 22:45:00,35.5,31.1,30.11,NNE,32,10.0,10.0,84,0.00,,,0.03,Wunderground v.1.15,2013-04-01 03:45:00,
2013-03-31 22:55:00,34.8,30.8,30.11,North,5,8.0,8.0,85,0.00,,,0.03,Wunderground v.1.15,2013-04-01 03:55:00,
2013-03-31 23:00:00,34.5,30.7,30.11,NE,34,8.0,11.0,86,0.00,,,0.03,Wunderground v.1.15,2013-04-01 04:00:00,
2013-03-31 23:05:00,34.4,30.6,30.12,North,355,8.0,11.0,86,0.00,,,0.03,Wunderground v.1.15,2013-04-01 04:05:00,
2013-03-31 23:10:00,34.4,30.6,30.12,North,355,8.0,8.0,86,0.00,,,0.04,Wunderground v.1.15,2013-04-01 04:10:00,
2013-03-31 23:15:00,34.2,30.7,30.12,North,355,10.0,10.0,87,0.00,,,0.04,Wunderground v.1.15,2013-04-01 04:15:00,
2013-03-31 23:25:00,33.9,30.4,30.12,NNW,343,8.0,9.0,87,0.00,,,0.04,Wunderground v.1.15,2013-04-01 04:25:00,
2013-03-31 23:30:00,33.8,30.3,30.13,North,360,8.0,16.0,87,0.00,,,0.04,Wunderground v.1.15,2013-04-01 04:30:00,
2013-03-31 23:40:00,33.5,30.3,30.13,North,355,9.0,10.0,88,0.00,,,0.04,Wunderground v.1.15,2013-04-01 04:40:00,
2013-03-31 23:45:00,33.4,30.2,30.13,North,5,9.0,10.0,88,0.00,,,0.04,Wunderground v.1.15,2013-04-01 04:45:00,
2013-03-31 23:55:00,33.0,29.8,30.13,NNE,13,8.0,11.0,88,0.00,,,0.04,Wunderground v.1.15,2013-04-01 04:55:00,